Location: Newark
(47.5833°N, 8.1500°E)
Time: 11:08:31
(UTC+00:00)

Transit 2A - Pass Details

Date: 05 November 2020
Orbit: 595 x 964 km, 66.7° (Epoch: 27 November)

Event Time Altitude Azimuth Distance (km) Brightness Sun altitude
Rises 02:14:58 0° 292° (WNW) 3,626 - -40.7°
Reaches altitude 10° 02:19:13 10° 319° (NW) 2,636 - -40.0°
Maximum altitude 02:22:01 13° 346° (NNW) 2,371 - -39.6°
Exits shadow 02:23:58 12° 6° (N) 2,455 8.8 -39.3°
Drops below altitude 10° 02:24:45 10° 14° (NNE) 2,548 9.0 -39.2°
Sets 02:28:43 0° 41° (NE) 3,403 10.1 -38.5°
